Flag for U.S.A. Weather past 2 weeks in Scottsdale, Arizona, U.S.A.

Now
71 °F

Clear.


Feels Like: 77 °F
Forecast: 67 / 83 °F
Wind: 5 mph from East

Location: Scottsdale Airport

Current Time: Oct 21, 2014 at 5:17:20 AM

Latest Report: Oct 21, 2014 at 3:53 AM


Visibility: 10 mi

Pressure: 29.80 "Hg

Humidity: 47%

Dew point: 50 °F

Location of ScottsdaleLocation

Historic Weather in Scottsdale — Graph

°F

Scottsdale temperature yesterday

Maximum temperature yesterday: 87 °F (at 2:53 PM)
Minimum temperature yesterday: 65 °F (at 6:53 AM)
Average temperature yesterday: 76 °F

Past Weeks' High & Low Weather Summary

 TemperatureHumidityPressure
High91 °F (Oct 12, 3:53 PM)93% (Oct 9, 5:53 AM)30.01 "Hg (Oct 9, 5:53 AM)
Low61 °F (Oct 14, 5:53 AM)9% (Oct 13, 1:53 PM)29.69 "Hg (Oct 19, 3:53 PM)
Average77 °F42%29.85 "Hg
* Reported Oct 6 3:53 AM — Oct 21 3:53 AM, Scottsdale, Weather by CustomWeather, © 2014

Note: Actual official high and low records may vary slightly from our data, if they occured in-between our weather recording intervals... More about our weather records

Advertising

Scottsdale weather history for previous 24 hours

 ConditionsComfort  
Time TempWeatherWind HumidityBarometerVisibility
3:53 AM
Oct 21
71 °FClear.5 mph47%29.80 "Hg10 mi
2:53 AM70 °FClear.No wind53%29.80 "Hg10 mi
1:53 AM71 °FClear.No wind49%29.82 "Hg10 mi
12:53 AM72 °FClear.No wind49%29.83 "Hg10 mi
11:53 PM
Oct 20
71 °FClear.No wind53%29.82 "Hg10 mi
10:53 PM74 °FClear.No wind43%29.81 "Hg10 mi
9:53 PM76 °FClear.No wind40%29.81 "Hg10 mi
8:53 PM78 °FClear.3 mph37%29.80 "Hg10 mi
7:53 PM80 °FClear.No wind34%29.79 "Hg10 mi
6:53 PM82 °FClear.No wind31%29.79 "Hg10 mi
5:53 PM84 °FClear.3 mph29%29.77 "Hg10 mi
4:53 PM86 °FSunny.No wind25%29.77 "Hg10 mi
3:53 PM87 °FSunny.3 mph24%29.78 "Hg10 mi
2:53 PM87 °FSunny.No wind24%29.79 "Hg10 mi
1:53 PM85 °FSunny.5 mph27%29.81 "Hg10 mi
12:53 PM84 °FSunny.5 mph29%29.83 "Hg10 mi
11:53 AM83 °FSunny.8 mph30%29.86 "Hg10 mi
10:53 AM81 °FSunny.8 mph32%29.88 "Hg10 mi
9:53 AM79 °FSunny.8 mph32%29.89 "Hg10 mi
8:53 AM74 °FSunny.No wind45%29.89 "Hg10 mi
7:53 AM69 °FSunny.No wind55%29.88 "Hg10 mi
6:53 AM65 °FSunny.No wind63%29.86 "Hg10 mi
5:53 AM66 °FClear.No wind61%29.85 "Hg10 mi
Weather by CustomWeather, © 2014

See weather overviewHow to use our weather pages